TimePDT,TemperatureF,Dew PointF,Humidity,Sea Level PressureIn,VisibilityMPH,Wind Direction,Wind SpeedMPH,Gust SpeedMPH,PrecipitationIn,Events,Conditions,WindDirDegrees,DateUTC
12:01 AM,50.0,46.4,87,29.92,4.0,Calm,Calm,-,N/A,,Overcast,0,2013-05-23 07:01:00
12:34 AM,50.0,46.4,87,29.91,1.8,Calm,Calm,-,N/A,,Overcast,0,2013-05-23 07:34:00
12:38 AM,50.0,46.4,87,29.91,0.8,Calm,Calm,-,N/A,,Overcast,0,2013-05-23 07:38:00
12:48 AM,50.0,46.4,87,29.91,1.8,East,3.5,-,0.00,Rain,Light Rain,90,2013-05-23 07:48:00
12:50 AM,50.0,46.4,87,29.91,3.0,ENE,3.5,-,0.00,Rain,Light Rain,70,2013-05-23 07:50:00
12:53 AM,50.0,46.0,86,29.92,5.0,ENE,3.5,-,0.00,Rain,Light Rain,60,2013-05-23 07:53:00
1:35 AM,50.0,46.4,87,29.93,4.0,Calm,Calm,-,0.05,Rain,Light Rain,0,2013-05-23 08:35:00
1:43 AM,50.0,46.4,87,29.93,3.0,ENE,3.5,-,0.07,Rain,Rain,60,2013-05-23 08:43:00
1:53 AM,50.0,45.0,83,29.94,3.0,East,4.6,-,0.09,Rain,Rain,90,2013-05-23 08:53:00
2:01 AM,50.0,44.6,82,29.93,3.0,East,5.8,-,0.03,Rain,Rain,90,2013-05-23 09:01:00
2:08 AM,50.0,44.6,82,29.93,5.0,East,3.5,-,0.03,Rain,Light Rain,100,2013-05-23 09:08:00
2:53 AM,48.9,45.0,86,29.93,5.0,Calm,Calm,-,0.07,Rain,Light Rain,0,2013-05-23 09:53:00
3:53 AM,48.0,44.1,86,29.93,5.0,East,3.5,-,0.04,Rain,Light Rain,90,2013-05-23 10:53:00
4:53 AM,48.0,44.1,86,29.94,4.0,East,4.6,-,0.08,Rain,Rain,90,2013-05-23 11:53:00
5:53 AM,48.0,44.1,86,29.94,5.0,East,3.5,-,0.10,Rain,Light Rain,100,2013-05-23 12:53:00
6:53 AM,48.0,44.1,86,29.95,4.0,ENE,3.5,-,0.06,Rain,Light Rain,70,2013-05-23 13:53:00
7:53 AM,48.0,44.1,86,29.95,4.0,East,3.5,-,0.06,Rain,Light Rain,80,2013-05-23 14:53:00
8:53 AM,48.9,44.1,83,29.96,3.0,East,3.5,-,0.07,Rain,Rain,90,2013-05-23 15:53:00
9:53 AM,50.0,46.0,86,29.96,5.0,Calm,Calm,-,0.04,Rain,Light Rain,0,2013-05-23 16:53:00
10:12 AM,51.8,46.4,82,29.95,7.0,Calm,Calm,-,0.00,Rain,Light Rain,0,2013-05-23 17:12:00
10:27 AM,51.8,46.4,82,29.95,8.0,Calm,Calm,-,0.00,Rain,Light Rain,0,2013-05-23 17:27:00
10:53 AM,52.0,46.0,80,29.96,8.0,SE,3.5,-,0.00,Rain,Light Rain,130,2013-05-23 17:53:00
11:53 AM,54.0,45.0,72,29.95,9.0,Variable,6.9,-,0.00,,Overcast,0,2013-05-23 18:53:00
12:29 PM,55.4,46.4,72,29.94,9.0,SSW,6.9,-,N/A,,Mostly Cloudy,200,2013-05-23 19:29:00
12:53 PM,55.0,44.1,67,29.94,9.0,SW,9.2,-,N/A,,Mostly Cloudy,220,2013-05-23 19:53:00
1:01 PM,55.4,44.6,67,29.94,9.0,SW,8.1,-,N/A,,Overcast,220,2013-05-23 20:01:00
1:39 PM,53.6,44.6,72,29.94,2.0,Calm,Calm,-,0.01,Rain,Rain,0,2013-05-23 20:39:00
1:53 PM,52.0,46.0,80,29.95,2.0,Calm,Calm,-,0.04,Rain,Rain,0,2013-05-23 20:53:00
2:07 PM,53.6,48.2,82,29.95,4.0,Variable,3.5,-,0.02,Rain,Light Rain,0,2013-05-23 21:07:00
2:33 PM,53.6,46.4,77,29.95,3.0,SW,5.8,-,0.02,Rain,Light Rain,230,2013-05-23 21:33:00
2:53 PM,54.0,46.9,77,29.95,6.0,SW,6.9,-,0.03,Rain,Light Rain,220,2013-05-23 21:53:00
3:53 PM,54.0,46.9,77,29.95,5.0,SSW,8.1,-,0.02,Rain,Light Rain,210,2013-05-23 22:53:00
4:53 PM,55.9,48.0,75,29.95,9.0,SW,5.8,-,0.00,,Mostly Cloudy,220,2013-05-23 23:53:00
5:18 PM,55.4,44.6,67,29.95,4.0,Calm,Calm,-,0.00,Rain,Light Rain,0,2013-05-24 00:18:00
5:40 PM,53.6,46.4,77,29.95,5.0,Calm,Calm,-,0.01,Rain,Light Rain,0,2013-05-24 00:40:00
5:53 PM,54.0,46.9,77,29.95,7.0,Calm,Calm,-,0.01,Rain,Light Rain,0,2013-05-24 00:53:00
6:50 PM,53.6,46.4,77,29.94,2.0,NW,5.8,-,0.02,Rain,Rain,320,2013-05-24 01:50:00
6:53 PM,53.1,46.9,80,29.94,2.5,NNW,4.6,-,0.03,Rain,Light Rain,330,2013-05-24 01:53:00
7:01 PM,53.6,48.2,82,29.94,7.0,Calm,Calm,-,0.00,Rain,Light Rain,0,2013-05-24 02:01:00
7:19 PM,53.6,48.2,82,29.95,9.0,Calm,Calm,-,0.00,,Overcast,0,2013-05-24 02:19:00
7:28 PM,53.6,48.2,82,29.95,9.0,Calm,Calm,-,0.00,,Overcast,0,2013-05-24 02:28:00
7:35 PM,53.6,48.2,82,29.95,9.0,North,3.5,-,0.00,,Overcast,350,2013-05-24 02:35:00
7:53 PM,53.1,48.0,83,29.95,9.0,Calm,Calm,-,0.00,,Overcast,0,2013-05-24 02:53:00
8:35 PM,51.8,46.4,82,29.95,4.0,NW,3.5,-,0.01,Rain,Light Rain,310,2013-05-24 03:35:00
8:53 PM,51.1,46.9,86,29.96,7.0,NNW,4.6,-,0.01,Rain,Light Rain,330,2013-05-24 03:53:00
9:05 PM,51.8,46.4,82,29.95,9.0,NW,6.9,-,0.00,Rain,Light Rain,320,2013-05-24 04:05:00
9:53 PM,50.0,46.0,86,29.97,10.0,Calm,Calm,-,0.00,,Overcast,0,2013-05-24 04:53:00
10:53 PM,48.0,44.1,86,29.98,9.0,North,5.8,-,0.00,,Clear,10,2013-05-24 05:53:00
11:53 PM,46.9,43.0,86,29.97,9.0,North,6.9,-,N/A,,Scattered Clouds,350,2013-05-24 06:53:00